This is the latest recevied weather packets stored in our database for station/object OK3MS-5. If no packets are shown the sender has not sent any weather packets the latest 1 day(s).
| Time | Temp. | Humidity | Pressure | Rain* | Wind** | Luminosity | Snow |
|---|---|---|---|---|---|---|---|
| 1836274678 | 15° C | 82% | 1022 hPa | 0 mm | 0.45 m/s, 44° | 0 W/m² | - |
| 1836274526 | 14.44° C | 85% | 1021.9 hPa | 0 mm | 0 m/s | 0 W/m² | - |
| 1836274376 | 14.44° C | 84% | 1022.1 hPa | 0 mm | 0 m/s | 0 W/m² | - |
| 1836274226 | 15.56° C | 82% | 1021.8 hPa | 0 mm | 0.45 m/s, 44° | 0 W/m² | - |
| 1836274080 | 13.89° C | 88% | 1022.2 hPa | 0 mm | 0 m/s | 0 W/m² | - |
| 1778019303 | 15.56° C | 72% | 1005.3 hPa | 0 mm | 0.89 m/s, 256° | 0 W/m² | - |
| 1778019008 | 15.56° C | 72% | 1005.2 hPa | 0 mm | 0.89 m/s, 251° | 0 W/m² | - |
| 1778018704 | 16.11° C | 72% | 1005.1 hPa | 0 mm | 2.68 m/s, 264° | 0 W/m² | - |
| 1778018409 | 16.11° C | 72% | 1005.1 hPa | 0 mm | 4.92 m/s, 270° | 0 W/m² | - |
| 1778018102 | 16.11° C | 71% | 1005 hPa | 0 mm | 5.36 m/s, 274° | 0 W/m² | - |
| 1778017808 | 16.11° C | 71% | 1005 hPa | 0 mm | 2.24 m/s, 270° | 0 W/m² | - |
| 1778017502 | 16.11° C | 71% | 1005 hPa | 0 mm | 4.02 m/s, 234° | 0 W/m² | - |
| 1778017210 | 16.11° C | 71% | 1005 hPa | 0 mm | 2.24 m/s, 241° | 0 W/m² | - |
| 1778016903 | 16.11° C | 72% | 1004.8 hPa | 0 mm | 0.89 m/s, 265° | 0 W/m² | - |
| 1778016303 | 16.11° C | 72% | 1004.7 hPa | 0 mm | 1.34 m/s, 252° | 0 W/m² | - |
| 1778016008 | 16.11° C | 73% | 1004.6 hPa | 0 mm | 2.68 m/s, 264° | 0 W/m² | - |
| 1778015704 | 16.11° C | 74% | 1004.5 hPa | 0 mm | 0.45 m/s, 281° | 0 W/m² | - |
| 1778015405 | 16.11° C | 75% | 1004.4 hPa | 0 mm | 1.34 m/s, 244° | 0 W/m² | - |
| 1778015104 | 16.11° C | 76% | 1004.3 hPa | 0 mm | 2.68 m/s, 240° | 0 W/m² | - |
| 1778014804 | 15.56° C | 76% | 1004.2 hPa | 0 mm | 0.89 m/s, 222° | 0 W/m² | - |
| 1778014502 | 15° C | 79% | 1004.1 hPa | 0 mm | 2.24 m/s, 198° | 0 W/m² | - |
| 1778014209 | 15° C | 79% | 1004 hPa | 0 mm | 0 m/s | 0 W/m² | - |
| 1778013903 | 15° C | 79% | 1003.8 hPa | 0 mm | 0 m/s | 0 W/m² | - |
| 1778013608 | 15.56° C | 77% | 1003.5 hPa | 0 mm | 0 m/s | 0 W/m² | - |
| 1778013303 | 15.56° C | 76% | 1003.3 hPa | 0 mm | 0 m/s | 0 W/m² | - |
* Rain latest hour (hover to see other rain measurements)
** Current wind speed in m/s (hover to see current wind gust speed)